User: anonymous   Login
Location: Keeble Observatory
(37.7625°N, 77.4755°W)
Time: 20:09:15
(UTC-04:00)
Language:

Cosmos 1484 Rocket - Orbit

View from above orbital plane
View from above orbital plane
View from above satellite
View from above satellite

Ground track
Ground track

The orbit data is extracted from the following two-line orbital elements,

1 14208U 83075B   17177.24474813 +.00000473 +00000-0 +31997-4 0  9991
2 14208 097.3401 187.4408 0041163 099.5674 261.0211 15.10395334848577
Epoch (UTC): 26 June 2017 05:52:26
Eccentricity: 0.0041163
inclination: 97.3401°
perigee height: 506 km
apogee height: 563 km
right ascension of ascending node: 187.4408°
argument of perigee: 99.5674°
revolutions per day: 15.10395334
mean anomaly at epoch: 261.0211°
orbit number at epoch: 84857

The dashed part of the orbit path shows where the satellite is in the earth's shadow,  

DLR